Henderson, KY

6:09 AM CDT on September 22, 2019 (GMT -0500)
Henderson City-County

Weather History for KEHR - May, 2019

Change the Weather History Date:

Friday, May 17, 2019

  Actual Average Record
Temperature  
Mean Temperature 80 °F -  
Max Temperature 89 °F 77 °F 93 °F (1962)
Min Temperature 70 °F 55 °F 40 °F (1973)
Cooling Degree Days 14    
Growing Degree Days 30 (Base 50)    
Moisture  
Dew Point 63 °F    
Average Humidity 62    
Maximum Humidity 81    
Minimum Humidity 36    
Precipitation  
Precipitation 0.00 in - - ()
Sea Level Pressure  
Sea Level Pressure 29.88 in    
Wind  
Wind Speed 11 mph (SW)    
Max Wind Speed 17 mph    
Max Gust Speed 25 mph    
Visibility 10 miles    
Events      
Averages and records for this station are not official NWS values.
T = Trace of Precipitation, MM = Missing Value Source: NWS Daily Summary

Daily Weather History Graph

Daily Weather History Graph

Search for Another Location

Airport or City:

Astronomy

May. 17, 2019 Rise Set
Actual Time 5:39 AM CDT 7:55 PM CDT
Civil Twilight 5:09 AM CDT 8:25 PM CDT
Nautical Twilight 4:33 AM CDT 9:01 PM CDT
Astronomical Twilight 3:53 AM CDT 9:41 PM CDT
Moon 6:45 PM CDT (5/17) 5:07 AM CDT (5/17)
Length of Visible Light 15h 15m
Length of Day
14h 16m
Waxing Gibbous, 98% of the Moon is Illuminated
May 17
Waxing Gibbous
May 18
Full
May 26
Last Quarter
Jun 3
New
Jun 10
First Quarter

Hourly Weather History & Observations

Time (CDT) Temp. Heat Index Dew Point Humidity Pressure Visibility Wind Dir Wind Speed Gust Speed Precip Events Conditions
12:56 AM 73.0 °F - 66.0 °F 79% 29.83 in 10.0 mi SW 9.2 mph - N/A   Clear
1:56 AM 73.9 °F - 64.9 °F 73% 29.83 in 10.0 mi SW 11.5 mph - N/A   Clear
2:56 AM 73.0 °F - 64.0 °F 73% 29.82 in 10.0 mi SW 12.7 mph - N/A   Clear
3:56 AM 72.0 °F - 64.0 °F 76% 29.84 in 10.0 mi WSW 10.4 mph - N/A   Clear
4:56 AM 70.0 °F - 64.0 °F 81% 29.88 in 10.0 mi SSW 4.6 mph - N/A   Clear
6:56 AM 70.0 °F - 64.0 °F 81% 29.91 in 10.0 mi SW 6.9 mph - N/A   Clear
7:56 AM 73.0 °F - 64.9 °F 76% 29.91 in 10.0 mi SW 9.2 mph - N/A   Clear
8:56 AM 77.0 °F - 66.0 °F 69% 29.91 in 10.0 mi SW 12.7 mph - N/A   Clear
9:56 AM 81.0 °F 83.0 °F 66.0 °F 60% 29.92 in 10.0 mi WSW 8.1 mph - N/A   Clear
10:56 AM 82.9 °F 84.6 °F 64.9 °F 54% 29.93 in 10.0 mi West 12.7 mph - N/A   Clear
11:56 AM 84.0 °F 86.3 °F 66.0 °F 55% 29.92 in 10.0 mi WSW 13.8 mph 20.7 mph N/A   Clear
1:56 PM 87.1 °F 87.8 °F 63.0 °F 44% 29.90 in 10.0 mi SW 17.3 mph - N/A   Clear
2:56 PM 88.0 °F 87.1 °F 59.0 °F 37% 29.89 in 10.0 mi SW 15.0 mph - N/A   Clear
3:56 PM 89.1 °F 88.2 °F 59.0 °F 36% 29.88 in 10.0 mi SW 17.3 mph 25.3 mph N/A   Clear
4:56 PM 88.0 °F 87.1 °F 59.0 °F 37% 29.88 in 10.0 mi SW 16.1 mph - N/A   Clear
5:56 PM 86.0 °F 86.1 °F 61.0 °F 43% 29.87 in 10.0 mi SW 13.8 mph - N/A   Clear
6:56 PM 82.9 °F 83.7 °F 62.1 °F 49% 29.88 in 10.0 mi SW 10.4 mph - N/A   Clear
7:56 PM 79.0 °F - 63.0 °F 58% 29.88 in 10.0 mi SSW 5.8 mph - N/A   Clear
8:56 PM 75.9 °F - 63.0 °F 64% 29.88 in 10.0 mi South 6.9 mph - N/A   Clear
9:56 PM 73.9 °F - 63.0 °F 68% 29.89 in 10.0 mi South 5.8 mph - N/A   Clear
10:56 PM 73.9 °F - 63.0 °F 68% 29.89 in 10.0 mi South 8.1 mph - N/A   Clear
11:56 PM 73.0 °F - 64.0 °F 73% 29.89 in 10.0 mi South 8.1 mph - N/A   Clear